Location: Betz
(49.1556°N, 2.9558°E)
Time: 03:06:31
(UTC+00:00)

Cosmos 2227 Rocket - Pass Details

Date: 18 September 2019
Orbit: 837 x 847 km, 71.0° (Epoch: 16 October)

Event Time Altitude Azimuth Distance (km) Brightness Sun altitude
Rises 20:45:01 0° 217° (SW) 3,385 5.3 -26.4°
Reaches altitude 10° 20:47:29 10° 221° (SW) 2,455 4.6 -26.7°
Maximum altitude 20:53:04 63° 302° (WNW) 940 2.6 -27.4°
Drops below altitude 10° 20:58:43 10° 24° (NNE) 2,477 4.8 -28.1°
Sets 21:01:13 0° 28° (NNE) 3,417 5.5 -28.4°
